Weather reports worldwide

Advertisment
St Joseph MO/Rosecrans, United States of America (72449): temperature & dewpoint: 12.07.2019 00:00:00 - 18.07.2019 00:00:00 (CDT)St Joseph MO/Rosecrans, United States of America (72449): wind speed & gusts: 12.07.2019 00:00:00 - 18.07.2019 00:00:00 (CDT)St Joseph MO/Rosecrans, United States of America (72449): wind direction: 12.07.2019 00:00:00 - 18.07.2019 00:00:00 (CDT)St Joseph MO/Rosecrans, United States of America (72449): reduced air pressure: 12.07.2019 00:00:00 - 18.07.2019 00:00:00 (CDT)St Joseph MO/Rosecrans, United States of America (72449): visibility: 12.07.2019 00:00:00 - 18.07.2019 00:00:00 (CDT)St Joseph MO/Rosecrans, United States of America (72449): precipitation: 12.07.2019 00:00:00 - 18.07.2019 00:00:00 (CDT)
Date & Time tt [°C] td [°C] ff [km/h] ff [kn] fx [km/h] fx [kn] dd ppp [hPa] vv [km] rr [mm]
18.07.2019 00:00:00 30,0 22,8 22 12 - - S 1009,0 16 -
17.07.2019 23:00:00 30,0 22,8 16 9 - - S 1008,7 16 -
17.07.2019 22:00:00 30,6 23,3 18 10 - - S 1008,4 16 -
17.07.2019 21:00:00 31,1 23,3 18 10 - - S 1008,0 15 -
17.07.2019 20:00:00 32,8 23,9 18 10 - - S 1007,4 15 -
17.07.2019 19:00:00 33,9 24,4 18 10 - - S 1007,3 16 -
17.07.2019 18:00:00 34,4 24,4 26 14 48 26 S 1007,6 16 -
17.07.2019 17:00:00 35,0 23,9 26 14 50 27 S 1008,3 16 -
17.07.2019 16:00:00 33,9 25,6 24 13 - - S 1008,7 15 -
17.07.2019 15:00:00 33,3 25,6 26 14 - - S 1009,5 16 -
17.07.2019 14:00:00 30,0 25,0 16 9 - - S 1010,2 15 0,0
17.07.2019 13:00:00 30,6 25,0 18 10 - - S 1010,3 16 0,0
17.07.2019 12:00:00 28,9 24,4 16 9 - - SSW 1010,9 11 0,0
17.07.2019 11:00:00 30,6 23,9 28 15 - - S 1010,0 16 -
17.07.2019 10:00:00 29,4 23,3 21 11 - - S 1011,0 13 -
17.07.2019 09:00:00 28,9 23,3 15 8 - - S 1011,1 11 -
17.07.2019 08:00:00 26,7 22,2 16 9 - - SSE 1011,4 11 -
17.07.2019 07:00:00 25,6 22,2 5 3 - - S 1010,9 13 -
17.07.2019 06:00:00 25,0 21,7 13 7 - - SSE 1010,6 15 -
17.07.2019 05:00:00 24,4 21,7 8 4 - - SE 1011,2 15 -
17.07.2019 04:00:00 24,4 21,7 8 4 - - S 1011,3 15 -
17.07.2019 03:00:00 25,6 22,2 9 5 - - SSW 1011,3 16 -
17.07.2019 02:00:00 25,0 22,2 8 4 - - S 1011,4 13 -
17.07.2019 01:00:00 25,6 22,2 8 4 - - S 1011,7 13 -
17.07.2019 00:00:00 25,6 22,2 5 3 - - S 1011,7 13 -
16.07.2019 23:00:00 26,7 22,2 8 4 - - S 1011,8 13 -
16.07.2019 22:00:00 27,2 22,8 9 5 - - S 1011,2 13 -
16.07.2019 21:00:00 28,9 22,8 9 5 - - S 1010,7 13 -
16.07.2019 20:00:00 30,6 22,8 11 6 - - SSW 1010,6 13 -
16.07.2019 19:00:00 31,1 23,3 5 3 - - S 1010,8 13 -
16.07.2019 18:00:00 31,7 22,8 9 5 - - S 1010,9 13 -
16.07.2019 17:00:00 32,2 21,1 9 5 - - WSW 1010,7 13 -
16.07.2019 16:00:00 32,2 22,2 13 7 - - SSW 1010,4 15 -
16.07.2019 15:00:00 31,7 21,7 11 6 - - SSE 1010,7 15 -
16.07.2019 14:00:00 30,0 22,2 11 6 - - S 1011,1 15 -
16.07.2019 13:00:00 29,4 22,2 15 8 - - SSW 1011,5 16 -
16.07.2019 12:00:00 27,8 21,7 15 8 - - SSW 1011,9 16 -
16.07.2019 11:00:00 25,6 20,6 9 5 - - SSW 1013,0 16 -
16.07.2019 10:00:00 25,0 20,6 5 3 - - NW 1013,8 16 -
16.07.2019 09:00:00 24,4 20,6 5 3 - - NNW 1014,6 16 -
16.07.2019 08:00:00 23,3 20,6 0 0 - - N 1013,8 16 -
16.07.2019 07:00:00 20,6 19,4 0 0 - - N 1012,4 13 -
16.07.2019 06:00:00 20,0 18,9 5 3 - - SSE 1011,9 15 -
16.07.2019 05:00:00 20,6 18,9 0 0 - - N 1011,7 13 -
16.07.2019 04:00:00 21,7 19,4 5 3 - - SE 1011,9 11 -
16.07.2019 03:00:00 21,7 19,4 5 3 - - WSW 1012,1 11 -
16.07.2019 02:00:00 21,7 19,4 5 3 - - S 1011,7 11 -
16.07.2019 01:00:00 22,8 19,4 8 4 - - SSE 1012,3 13 -
16.07.2019 00:00:00 23,3 20,0 8 4 - - SE 1012,2 13 -
15.07.2019 23:00:00 22,8 20,6 0 0 - - N 1012,3 11 -
15.07.2019 22:00:00 24,4 20,6 5 3 - - NNW 1012,2 15 -
15.07.2019 21:00:00 25,6 20,0 8 4 - - SSE 1011,4 16 -
15.07.2019 20:00:00 27,8 20,0 9 5 - - SSE 1011,3 16 -
15.07.2019 19:00:00 28,3 20,0 11 6 - - SE 1011,1 16 -
15.07.2019 18:00:00 28,3 19,4 11 6 - - SSE 1011,8 16 -
15.07.2019 17:00:00 29,4 19,4 22 12 - - ESE 1012,3 16 -
15.07.2019 16:00:00 30,0 20,0 18 10 - - ESE 1012,8 16 -
15.07.2019 15:00:00 29,4 19,4 18 10 - - ESE 1012,8 16 -
15.07.2019 14:00:00 29,4 20,0 13 7 - - SE 1013,2 15 -
15.07.2019 13:00:00 28,9 20,0 16 9 - - ESE 1013,9 13 -
15.07.2019 12:00:00 27,8 19,4 - - - - - 1014,6 15 -
15.07.2019 11:00:00 26,7 18,9 11 6 - - SSE 1014,9 15 -
15.07.2019 10:00:00 25,6 18,9 22 12 - - SSE 1015,0 16 -
15.07.2019 09:00:00 24,4 18,9 18 10 - - S 1015,8 16 -
15.07.2019 08:00:00 23,3 18,9 8 4 - - SSE 1016,1 15 -
15.07.2019 07:00:00 21,7 18,9 5 3 - - SE 1016,1 13 -
15.07.2019 06:00:00 21,1 18,9 8 4 - - S 1015,8 15 -
15.07.2019 05:00:00 22,2 19,4 13 7 - - S 1015,4 16 -
15.07.2019 04:00:00 23,3 20,0 13 7 - - SSE 1015,1 16 -
15.07.2019 03:00:00 23,3 20,6 9 5 - - S 1015,1 16 -
15.07.2019 02:00:00 25,0 20,6 13 7 - - SSE 1015,3 16 -
15.07.2019 01:00:00 25,6 21,1 13 7 - - SSE 1015,7 16 -
15.07.2019 00:00:00 26,1 21,1 15 8 - - SSE 1015,6 16 -
14.07.2019 23:00:00 27,2 21,7 13 7 - - SSE 1015,5 16 -
14.07.2019 22:00:00 28,9 22,2 13 7 - - S 1014,8 16 -
14.07.2019 21:00:00 28,9 22,8 15 8 - - SSE 1014,2 16 -
14.07.2019 20:00:00 31,1 22,8 13 7 - - SSE 1014,1 16 -
14.07.2019 19:00:00 32,2 22,2 15 8 - - SSE 1014,5 16 -
14.07.2019 18:00:00 32,8 22,2 15 8 - - S 1014,9 16 -
14.07.2019 17:00:00 32,8 22,8 13 7 - - SSE 1015,4 16 -
14.07.2019 16:00:00 31,7 22,2 15 8 - - S 1015,7 16 -
14.07.2019 15:00:00 32,8 21,1 15 8 - - S 1016,1 16 -
14.07.2019 14:00:00 31,7 20,6 9 5 - - S 1016,6 16 -
14.07.2019 13:00:00 31,7 20,6 13 7 - - SSE 1017,3 15 -
14.07.2019 12:00:00 31,1 20,6 0 0 - - N 1017,3 16 -
14.07.2019 11:00:00 30,6 20,0 5 3 - - - 1017,6 16 -
14.07.2019 10:00:00 28,9 20,0 0 0 - - N 1017,8 16 -
14.07.2019 09:00:00 26,7 20,6 0 0 - - N 1017,9 13 -
14.07.2019 08:00:00 24,4 21,7 5 3 - - SSE 1017,5 11 -
14.07.2019 07:00:00 21,7 20,0 5 3 - - N 1017,4 8 -
14.07.2019 06:00:00 21,1 19,4 0 0 - - N 1017,0 13 -
14.07.2019 05:00:00 21,1 19,4 0 0 - - N 1016,9 13 -
14.07.2019 04:00:00 22,2 20,0 0 0 - - N 1016,7 13 -
14.07.2019 03:00:00 23,3 20,0 8 4 - - SSE 1016,8 16 -
14.07.2019 02:00:00 23,9 20,6 11 6 - - S 1016,5 16 -
14.07.2019 01:00:00 23,9 21,7 5 3 - - W 1016,7 16 -
14.07.2019 00:00:00 24,4 21,7 0 0 - - N 1016,6 15 -
13.07.2019 23:00:00 25,0 22,2 0 0 - - N 1016,0 16 -
13.07.2019 22:00:00 26,1 22,2 0 0 - - N 1015,7 16 -
13.07.2019 21:00:00 27,8 20,6 0 0 - - N 1015,1 16 -
13.07.2019 20:00:00 30,0 20,0 9 5 - - SE 1014,8 16 -
13.07.2019 19:00:00 32,8 18,9 0 0 - - N 1014,6 16 -
13.07.2019 18:00:00 32,2 18,9 5 3 - - SSE 1014,9 16 -
13.07.2019 17:00:00 32,2 18,9 8 4 - - SSE 1015,4 16 -
13.07.2019 16:00:00 32,2 18,9 18 10 - - SSE 1015,0 16 -
13.07.2019 15:00:00 32,2 19,4 15 8 - - SE 1015,7 16 -
13.07.2019 14:00:00 31,7 21,1 16 9 - - SSE 1015,6 16 -
13.07.2019 13:00:00 31,1 20,6 13 7 - - S 1016,5 16 -
13.07.2019 12:00:00 30,0 20,0 5 3 - - - 1016,7 16 -
13.07.2019 11:00:00 28,9 20,6 8 4 - - S 1016,5 16 -
13.07.2019 10:00:00 27,2 20,0 5 3 - - - 1017,0 16 -
13.07.2019 09:00:00 25,6 20,6 5 3 - - S 1017,1 16 -
13.07.2019 08:00:00 22,8 20,6 0 0 - - N 1017,4 11 -
13.07.2019 07:00:00 20,6 18,9 5 3 - - N 1017,1 8 -
13.07.2019 06:00:00 20,0 18,9 0 0 - - N 1015,9 13 -
13.07.2019 05:00:00 20,0 18,9 0 0 - - N 1015,2 11 -
13.07.2019 04:00:00 21,1 18,9 0 0 - - N 1015,0 16 -
13.07.2019 03:00:00 20,0 18,3 0 0 - - N 1015,0 13 -
13.07.2019 02:00:00 22,2 19,4 5 3 - - S 1014,2 16 -
13.07.2019 01:00:00 22,2 20,0 8 4 - - SSW 1013,8 16 -
13.07.2019 00:00:00 22,8 20,6 0 0 - - N 1014,3 16 -
12.07.2019 23:00:00 22,8 20,0 5 3 - - N 1014,5 16 -
12.07.2019 22:00:00 26,1 19,4 0 0 - - N 1014,0 16 -
12.07.2019 21:00:00 26,7 19,4 13 7 - - SE 1013,2 16 -
12.07.2019 20:00:00 28,9 19,4 15 8 - - SSE 1013,2 16 -
12.07.2019 19:00:00 30,0 19,4 15 8 - - SSE 1013,1 16 -
12.07.2019 18:00:00 30,6 19,4 15 8 - - SSE 1013,0 16 -
12.07.2019 17:00:00 31,1 20,0 18 10 - - SSE 1013,4 16 -
12.07.2019 16:00:00 31,1 18,3 5 3 - - - 1014,5 16 -
12.07.2019 15:00:00 31,1 18,9 11 6 - - S 1014,3 16 -
12.07.2019 14:00:00 30,0 18,3 - - - - - 1014,7 16 -
12.07.2019 13:00:00 29,4 18,3 5 3 - - - 1014,8 16 -
12.07.2019 12:00:00 28,9 17,8 0 0 - - N 1015,1 16 -
12.07.2019 11:00:00 27,8 18,3 9 5 - - SW 1015,5 16 -
12.07.2019 10:00:00 26,1 19,4 8 4 - - S 1015,7 13 -
12.07.2019 09:00:00 23,9 20,0 5 3 - - SSE 1015,8 16 -
12.07.2019 08:00:00 21,7 19,4 0 0 - - N 1015,7 13 -
12.07.2019 07:00:00 18,9 17,8 0 0 - - N 1015,6 11 -
12.07.2019 06:00:00 18,3 16,7 4 2 - - - 1015,4 10 -
12.07.2019 05:00:00 18,3 16,7 5 3 - - NW 1015,5 16 -
12.07.2019 04:00:00 18,9 17,2 0 0 - - N 1015,4 16 -
12.07.2019 03:00:00 19,4 17,2 0 0 - - N 1015,4 16 -
12.07.2019 02:00:00 20,0 17,8 0 0 - - N 1015,4 16 -
12.07.2019 01:00:00 20,6 18,9 0 0 - - N 1015,0 16 -
12.07.2019 00:00:00 21,1 18,9 0 0 - - N 1014,9 16 -

tt = temperature
td = dewpoint
ff = wind speed
fx = gusts
dd = wind direction
ppp = reduced air pressure
vv = visibility
rr = precipitation

Next stations